Current Version              Previous Version:    01  02  03  04  05  06  07  08  09  10  11  12  13  14  15  16  17  18  19  20  21  22  23  24  25  26  27  28  29  30  
   31  32  33  34  35  36  37  38  39  40  41  42  43  44  45  46  47  48  49  50  51  52  53  54  55  56  57  58  59  60  

[Printable]
952
ASUS44 KLUB 170901
RWRTX
WEST TEXAS WEATHER ROUNDUP
NATIONAL WEATHER SERVICE LUBBOCK TX
400 AM CDT WED SEP 17 2014

NOTE: "FAIR" INDICATES FEW OR NO CLOUDS BELOW 12,000 FEET WITH NO
SIGNIFICANT WEATHER AND/OR OBSTRUCTIONS TO VISIBILITY.

TXZ004-006>008-010-012-014-016-OKZ002-171000-
TEXAS PANHANDLE/OKLAHOMA PANHANDLE

CITY           SKY/WX    TMP DP  RH WIND       PRES   REMARKS
AMARILLO       MOCLDY    63  61  93 SW8       30.09F
BORGER         MOCLDY    69  62  78 S5        30.05S
CANADIAN       PTCLDY    66  64  91 SW3       30.01S
DALHART        CLOUDY    61  58  90 SW6       30.08F
GUYMON         PTCLDY    64  60  87 SW12      29.99F
HEREFORD       CLOUDY    64  63  98 SW5       30.11F
PAMPA          MOCLDY    63  60  88 SW7       30.06F
PERRYTON       PTCLDY    64  60  88 SW9       30.01F
$$

TXZ026-029-035-045-048-171000-
SOUTHERN PANHANDLE/SOUTH PLAINS/ROLLING PLAINS

CITY           SKY/WX    TMP DP  RH WIND       PRES   REMARKS
CHILDRESS      MOCLDY    70  67  90 SW7       30.03F
SEMINOLE       CLOUDY    67  66  98 CALM      30.10F FOG
LUBBOCK        CLOUDY    68  65  90 S7        30.08F
PLAINVIEW      CLOUDY    64  62  95 SW3       30.08F
SNYDER         CLOUDY    70  69  95 NE5       30.05F
$$

TXZ052-054-060>062-072-078-127-140-154-169-171000-
PERMIAN BASIN/CONCHO VALLEY/BIG COUNTRY/EDWARDS PLATEAU

CITY           SKY/WX    TMP DP  RH WIND       PRES   REMARKS
ABILENE        LGT RAIN  75  69  81 SE3       30.02F
BIG SPRING     CLOUDY    74  69  85 CALM      30.07F
BRADY            N/A     72  70  94 CALM      30.02S
JUNCTION       PTCLDY    74  68  81 NE3       30.02S
MIDLAND        MOCLDY    71  66  84 E6        30.05F
ODESSA         MOCLDY    70  65  84 E8        30.07F
SAN ANGELO     CLOUDY    76  68  76 NE3       30.01F
SONORA         PTCLDY    73  70  88 CALM      30.07S
SWEETWATER     CLOUDY    73  69  88 S8        30.06F
WINK           MOCLDY    72  65  78 E7        30.03F
$$

TXZ055-058-074-075-080-082-171000-
FAR WEST/SOUTHWEST MOUNTAINS/TRANS PECOS

CITY           SKY/WX    TMP DP  RH WIND       PRES   REMARKS
ALPINE         MOCLDY    63  60  90 W7        30.19S
DRYDEN           N/A     76  69  79 CALM      30.00F
EL PASO        CLOUDY    69  64  84 N9        30.07F
FORT STOCKTON  MOCLDY    69  64  84 S9        30.05F
GUADALUPE PASS FOG       62  62 100 NE28      30.17F VSB 1/2
MARFA          MOCLDY    59  57  94 NW5       30.18S
PRESIDIO       FAIR      75  63  64 N8        30.02F
$$

TXZ014-016-019-021>030-083-171000
TEXAS TECH WEST TEXAS MESONET/TEXAS PANHANDLE/NORTHERN SOUTH PLAINS

CITY           SKY/WX    TMP DP  RH WIND       PRES   REMARKS
ABERNATHY 5ENE   N/A     66  64  93 E1        30.11S
AMARILLO 9NNE    N/A     63  62  96 S8        30.07F
AMARILLO 7SSE    N/A     60  60  97 SW3       30.11S
AMHERST 1NE      N/A     65  64  97 S3        30.11F
BOOTLEG 11WNW    N/A     62  60  93 SW5       30.15F
CANADIAN 6E      N/A     68  63  84 W5        30.00S
CAPROCK CYN SP   N/A     68  63  82 W2        30.06F
CLARENDON 2WSW   N/A     65  60  82 SW2       30.05F
CLAUDE 12SW      N/A     66  63  90 SW7       30.09F
DIMMITT 2NE      N/A     63  61  96 S5        30.11F
FLOYDADA 2NNE    N/A     65  64  96 W3        30.09S
FRIONA 2NE       N/A     62  60  91 S5        30.13F
GOODLETT 3W      N/A     69  65  88 SW5       30.00S
HART 3N          N/A     62  60  96 SW5       30.11F
HEREFORD 2NW     N/A     61  59  93 S3        30.11F
MCLEAN 1E        N/A     67  62  83 SW9       30.03F
MEMPHIS 1NE      N/A     64  61  90 E1        30.02F
MULESHOE 2SSW    N/A     64  63  96 S3        30.11F
OLTON 6S         N/A     65  62  92 S5        30.11S
PALO DURO SP     N/A     63  61  94 SW3       30.10F
PAMPA 2E         N/A     64  61  88 SW7       30.05F
PLAINVIEW 1S     N/A     65  64  94 SW5       30.09F
SILVERTON 7ESE   N/A     62  60  94 W3        30.08F
TULIA 2ENE       N/A     64  63  95 SW7       30.09F
TURKEY 2WSW      N/A     69  64  84 W5        30.04F
UMBARGER 3NNE    N/A     63  62  96 SW6       30.11F
$$

TXZ033>036-039>041-045>048-171000
TEXAS TECH WEST TEXAS MESONET/SOUTH PLAINS

CITY           SKY/WX    TMP DP  RH WIND       PRES   REMARKS
AIKEN 3WSW       N/A     65  64  97 SW5       30.10F
ANDREWS 2NE      N/A     68  65  90 NE5       30.09F
ANTON 6SSW       N/A     66  65  94 S7        30.10S
BROWNFIELD 2S    N/A     66  64  93 NE1       30.10F
DENVR CTY 7WNW   N/A     64  62  93 E2        30.11F
GAIL 2ESE        N/A     69  67  93 NW2       30.05F
LAMESA 2SE       N/A     68  66  92 NE1       30.08F
LEVELLAND 4S     N/A     65  63  93 S6        30.11F
LUBBOCK 3WNW     N/A     67  64  91 S5        30.08F
MORTON 1ENE      N/A     65  64  97 S6        30.11F
ODONNELL 1N      N/A     67  64  92 N3        30.09F
PLAINS 3N        N/A     65  64  96 SE2       30.12F
RALLS 1SE        N/A     68  65  91 SW8       30.09F
REESE CENTER     N/A     66  65  96 S8        30.09F
SEAGRAVES 1SW    N/A     66  64  94 E2        30.10F
SEMINOLE 2NNE    N/A     67  64  93 E6        30.09F
SLATON 2NE       N/A     67  64  91 SW7       30.08F
SNYDER 3E        N/A     70  67  92 E5        30.05S
SUNDOWN 8SW      N/A     65  64  95 S5        30.12S
TAHOKA 3NNE      N/A     66  65  94 CALM      30.08F
WOLFFORTH 6SSW   N/A     66  65  97 S3        30.10F
$$

TXZ031-032-036>038-042>044-171000-
TEXAS TECH WEST TEXAS MESONET/ROLLING PLAINS

CITY           SKY/WX    TMP DP  RH WIND       PRES   REMARKS
ASPERMONT 3NE    N/A     71  69  94 N2        30.02S
FLUVANNA 3WNW    N/A     69  66  91 N1        30.06F
GRAHAM 5SSW      N/A     67  65  91 NW3       30.07F
GUTHRIE 10WSW    N/A     70  66  88 SW2       30.02F
HASKELL 1NW      N/A     72  68  88 SE3       30.01F
JAYTON 1SSE      N/A     70  68  94 NW3       30.03F
KNOX CITY 3NW    N/A     73  67  83 E3        30.01S
LK A HENRY 1NW   N/A     69  69  97 NW1       30.04F
ODELL 4ENE       N/A     71  68  89 S3        29.99F
PADUCAH 10SW     N/A     71  66  83 SW3       30.02F
POST 1NE         N/A     69  68  97 NW1       30.06S
RRING SPRGS 3N   N/A     68  66  93 SW6       30.05F
SEYMOUR 3NW      N/A     74  67  80 SW1       29.99F
SPUR 1W          N/A     69  66  90 W2        30.04F
WEINERT 2NNE     N/A     71  69  94 S1        30.01F
WHITE RVR 6NE    N/A     69  65  90 W3        30.06F
$$

TXZ052-054-060>062-072-078-127-140-154-169-171000-
TEXAS TECH WEST TEXAS MESONET/PERMIAN BASIN/
CONCHO VALLEY/BIG COUNTRY/EDWARDS PLATEAU

CITY           SKY/WX    TMP DP  RH WIND       PRES   REMARKS
COYANOSA 2N      N/A     71  64  77 E2        30.04S
JUNCTION 1SSW    N/A     71  70  98 E1        30.02F
MERTZON 3NNE     N/A     74  68  81 S3        30.03F
SAN ANGELO 7NW   N/A     73  66  78 NE3       30.02F
STRLNG CT 4WSW   N/A     72  66  82 E1        30.04F
ST LAWRNCE 5SW   N/A     69  66  90 E3        30.05F
SWEETWATR 11SW   N/A     73  68  86 SE6       30.06F
WALL 1E          N/A     72  67  83 E6        30.02F
$$

TXZ055-058-074-075-080-082-171000-
TEXAS TECH WEST TEXAS MESONET/FAR WEST/SOUTHWEST MOUNTAINS/TRANS PECOS

CITY           SKY/WX    TMP DP  RH WIND       PRES   REMARKS
PRSMN GAP BBNP   N/A     72  65  77 N9        30.03F
GUADLPE MTN NP   N/A     64  58  82 NE3       30.21F
$$